Avalon, CA

7:58 PM PDT on September 24, 2016 (GMT -0700)
Catalina

Weather History for KAVX - October, 2013

Change the Weather History Date:

Thursday, October 3, 2013

  Actual Average Record
Temperature  
Mean Temperature 59 °F -  
Max Temperature 64 °F 70 °F 91 °F (2014)
Min Temperature 55 °F 56 °F 53 °F (2002)
Degree Days  
Heating Degree Days 6    
Growing Degree Days 9 (Base 50)    
Moisture  
Dew Point 55 °F    
Average Humidity 91    
Maximum Humidity 100    
Minimum Humidity 77    
Precipitation  
Precipitation 0.01 in - - ()
Sea Level Pressure  
Sea Level Pressure 29.92 in    
Wind  
Wind Speed 4 mph (SSW)    
Max Wind Speed 10 mph    
Max Gust Speed -    
Visibility 4 miles    
Events Fog    
Averages and records for this station are not official NWS values.
T = Trace of Precipitation, MM = Missing Value Source: NWS Daily Summary

Daily Weather History Graph

Daily Weather History Graph

Search for Another Location

Airport or City:

Trip Planner

Search our weather history database for the weather conditions in past years. The results will help you decide how hot, cold, wet, or windy it might be!

Date:

Astronomy

Oct. 03, 2013 Rise Set
Actual Time 6:49 AM PDT 6:34 PM PDT
Civil Twilight 6:24 AM PDT 6:59 PM PDT
Nautical Twilight 5:56 AM PDT 7:28 PM PDT
Astronomical Twilight 5:27 AM PDT 7:57 PM PDT
Moon 5:30 AM PDT (10/3) 5:45 PM PDT (10/3)
Length of Visible Light 12h 34m
Length of Day
11h 45m
Waning Crescent, 2% of the Moon is Illuminated
Oct 3
Waning Crescent
Oct 4
New
Oct 11
First Quarter
Oct 18
Full
Oct 26
Last Quarter

Hourly Weather History & Observations

Time (PDT) Temp. Dew Point Humidity Pressure Visibility Wind Dir Wind Speed Gust Speed Precip Events Conditions
12:06 AM 57.2 °F 55.4 °F 94% 29.95 in 1.5 mi SSW 3.5 mph - N/A   Overcast
12:16 AM 57.2 °F 55.4 °F 94% 29.95 in 2.5 mi SW 4.6 mph - N/A   Overcast
12:29 AM 57.2 °F 55.4 °F 94% 29.95 in 1.2 mi Calm Calm - N/A   Overcast
12:39 AM 57.2 °F 55.4 °F 94% 29.95 in 0.8 mi SSW 4.6 mph - N/A   Overcast
12:51 AM 55.9 °F 54.0 °F 93% 29.91 in 0.5 mi SSW 8.1 mph - N/A Fog Fog
1:15 AM 55.4 °F 53.6 °F 94% 29.95 in 1.0 mi South 4.6 mph - N/A   Mist
1:22 AM 57.2 °F 53.6 °F 88% 29.95 in 2.5 mi South 3.5 mph - N/A   Mostly Cloudy
1:26 AM 57.2 °F 55.4 °F 94% 29.95 in 6.0 mi South 5.8 mph - N/A   Scattered Clouds
1:33 AM 55.4 °F 53.6 °F 94% 29.95 in 2.5 mi SSW 4.6 mph - N/A   Mostly Cloudy
1:35 AM 55.4 °F 53.6 °F 94% 29.95 in 1.0 mi SW 5.8 mph - N/A   Mist
1:42 AM 57.2 °F 53.6 °F 88% 29.95 in 0.2 mi WSW 6.9 mph - N/A Fog Fog
1:51 AM 57.0 °F 55.0 °F 93% 29.92 in 0.2 mi WSW 5.8 mph - N/A Fog Fog
2:51 AM 55.9 °F 55.0 °F 97% 29.91 in 0.2 mi Calm Calm - 0.01 in Fog Fog
3:51 AM 55.9 °F 55.0 °F 97% 29.90 in 0.2 mi South 4.6 mph - N/A Fog Fog
4:26 AM 57.2 °F 55.4 °F 94% 29.94 in 1.2 mi East 3.5 mph - N/A   Overcast
4:30 AM 57.2 °F 55.4 °F 94% 29.94 in 3.0 mi SE 3.5 mph - N/A   Overcast
4:41 AM 55.4 °F 55.4 °F 100% 29.94 in 0.8 mi SSW 3.5 mph - N/A   Overcast
4:51 AM 55.9 °F 55.0 °F 97% 29.91 in 0.2 mi South 4.6 mph - N/A Fog Fog
5:10 AM 57.2 °F 55.4 °F 94% 29.93 in 1.2 mi SSE 4.6 mph - N/A   Overcast
5:14 AM 57.2 °F 55.4 °F 94% 29.93 in 0.8 mi SSE 5.8 mph - N/A   Mist
5:51 AM 55.9 °F 54.0 °F 93% 29.90 in 0.5 mi ESE 5.8 mph - N/A Fog Fog
5:56 AM 55.4 °F 55.4 °F 100% 29.93 in 1.2 mi ESE 5.8 mph - N/A   Mostly Cloudy
6:00 AM 55.4 °F 53.6 °F 94% 29.93 in 3.0 mi ESE 5.8 mph - N/A   Mostly Cloudy
6:10 AM 55.4 °F 53.6 °F 94% 29.93 in 10.0 mi ESE 5.8 mph - N/A   Scattered Clouds
6:51 AM 55.9 °F 54.0 °F 93% 29.90 in 6.0 mi SE 4.6 mph - N/A   Clear
7:11 AM 55.4 °F 53.6 °F 94% 29.93 in 0.5 mi SSE 3.5 mph - N/A Fog Fog
7:43 AM 57.2 °F 55.4 °F 94% 29.94 in 1.2 mi Calm Calm - N/A   Mostly Cloudy
7:47 AM 57.2 °F 55.4 °F 94% 29.94 in 3.0 mi East 3.5 mph - N/A   Scattered Clouds
7:51 AM 57.0 °F 55.0 °F 93% 29.92 in 4.0 mi ESE 3.5 mph - N/A   Mostly Cloudy
7:59 AM 57.2 °F 53.6 °F 88% 29.94 in 1.8 mi ESE 4.6 mph - N/A   Mostly Cloudy
8:10 AM 57.2 °F 55.4 °F 94% 29.94 in 3.0 mi ESE 3.5 mph - N/A   Mostly Cloudy
8:51 AM 57.9 °F 55.9 °F 93% 29.93 in 0.5 mi Calm Calm - N/A Fog Fog
9:01 AM 59.0 °F 57.2 °F 94% 29.96 in 2.5 mi Calm Calm - N/A   Overcast
9:08 AM 59.0 °F 55.4 °F 88% 29.96 in 4.0 mi Calm Calm - N/A   Overcast
9:37 AM 59.0 °F 55.4 °F 88% 29.96 in 2.5 mi WSW 4.6 mph - N/A   Overcast
9:42 AM 57.2 °F 55.4 °F 94% 29.96 in 1.0 mi WSW 4.6 mph - N/A   Overcast
9:48 AM 57.2 °F 55.4 °F 94% 29.96 in 1.2 mi West 4.6 mph - N/A   Overcast
9:51 AM 57.9 °F 55.0 °F 90% 29.93 in 1.5 mi West 3.5 mph - N/A   Overcast
10:06 AM 57.2 °F 55.4 °F 94% 29.96 in 0.8 mi West 4.6 mph - N/A   Overcast
10:10 AM 57.2 °F 55.4 °F 94% 29.96 in 1.2 mi WSW 4.6 mph - N/A   Overcast
10:32 AM 59.0 °F 55.4 °F 88% 29.95 in 3.0 mi WSW 3.5 mph - N/A   Overcast
10:51 AM 59.0 °F 55.9 °F 90% 29.93 in 5.0 mi WSW 4.6 mph - N/A   Overcast
11:26 AM 59.0 °F 55.4 °F 88% 29.95 in 4.0 mi WSW 6.9 mph - N/A   Overcast
11:51 AM 59.0 °F 55.0 °F 87% 29.92 in 4.0 mi West 5.8 mph - N/A   Overcast
11:59 AM 60.8 °F 55.4 °F 82% 29.94 in 4.0 mi WSW 6.9 mph - N/A   Overcast
12:51 PM 61.0 °F 55.9 °F 83% 29.90 in 7.0 mi WSW 9.2 mph - N/A   Overcast
1:51 PM 63.0 °F 55.9 °F 78% 29.87 in 10.0 mi SSW 6.9 mph - N/A   Mostly Cloudy
1:58 PM 62.6 °F 55.4 °F 77% 29.90 in 10.0 mi West 10.4 mph - N/A   Scattered Clouds
2:51 PM 62.1 °F 55.0 °F 78% 29.86 in 10.0 mi WSW 10.4 mph - N/A   Partly Cloudy
3:51 PM 62.1 °F 55.0 °F 78% 29.85 in 10.0 mi WSW 9.2 mph - N/A   Clear
4:34 PM 60.8 °F 55.4 °F 82% 29.87 in 9.0 mi SW 5.8 mph - N/A   Partly Cloudy
4:51 PM 60.1 °F 55.0 °F 83% 29.84 in 8.0 mi WSW 6.9 mph - N/A   Partly Cloudy
5:51 PM 57.9 °F 55.0 °F 90% 29.84 in 7.0 mi WSW 6.9 mph - N/A   Mostly Cloudy
6:15 PM 57.2 °F 53.6 °F 88% 29.87 in 6.0 mi WSW 6.9 mph - N/A   Scattered Clouds
6:30 PM 57.2 °F 53.6 °F 88% 29.88 in 4.0 mi SW 6.9 mph - N/A   Mostly Cloudy
6:51 PM 57.0 °F 54.0 °F 89% 29.85 in 5.0 mi SW 4.6 mph - N/A   Mostly Cloudy
7:04 PM 57.2 °F 53.6 °F 88% 29.87 in 7.0 mi SSW 3.5 mph - N/A   Partly Cloudy
7:49 PM 57.2 °F 53.6 °F 88% 29.88 in 8.0 mi Calm Calm - N/A   Mostly Cloudy
7:51 PM 57.0 °F 54.0 °F 89% 29.86 in 8.0 mi Calm Calm - N/A   Mostly Cloudy
8:31 PM 57.2 °F 55.4 °F 94% 29.88 in 8.0 mi East 5.8 mph - N/A   Overcast
8:51 PM 57.9 °F 55.0 °F 90% 29.86 in 7.0 mi East 5.8 mph - N/A   Mostly Cloudy
9:51 PM 57.9 °F 55.0 °F 90% 29.87 in 6.0 mi East 5.8 mph - N/A   Overcast
10:51 PM 57.9 °F 55.0 °F 90% 29.87 in 8.0 mi East 8.1 mph - N/A   Overcast
11:51 PM 57.0 °F 54.0 °F 89% 29.88 in 6.0 mi SSE 4.6 mph - N/A   Overcast